Tracking 29892 objects as of 21-Nov-2024
HD Live streaming from Space Station
objects crossing your sky now

SL-6 R/B(2)

Track SL-6 R/B(2) now!


NORAD ID: 15098
Int'l Code: 1984-071D
Perigee: 5,062.0 km
Apogee: 34,709.1 km
Inclination: 72.2 °
Period: 705.7 minutes
Semi major axis: 26256 km
RCS: 5.337 m2 (large)
Launch date: July 3, 1984
Source: Commonwealth of Independent States (former USSR) (CIS)
Launch site: PLESETSK MISSILE AND SPACE COMPLEX (PKMTR)

Note: This is a ROCKET BODY
Your satellite tracking list
Your tracking list is empty




NASA's NSSDC Master Catalog

Two Line Element Set (TLE):
1 15098U 84071D   24325.51020060  .00000282  00000-0  00000+0 0  9994
2 15098  72.2016  29.5031 5645670 308.0866  13.3126  2.04054637300984
Source of the keplerian elements: AFSPC